Regional Weather Roundup
Issued by NWS

Home | Current Version | Previous Version | Graphics & Text | Print | Product List | Glossary On
Versions: 1 2 3 4 5 6 7 8 9 10 11 12 13 14 15 16 17 18 19 20 21 22 23 24 25 26 27 28 29 30 31 32 33 34 35 36 37 38 39 40 41 42 43 44 45 46 47 48 49 50
000
ASUS45 KSLC 040110
RWRUT
UTAH REGIONAL WEATHER ROUNDUP
NATIONAL WEATHER SERVICE SALT LAKE CITY UT
700 PM MDT MON AUG 03 2015

UTZ001>011-023>025-040200-

NORTHERN UTAH

CITY           SKY/WX    TMP DP  RH WIND       PRES   REMARKS
BRIGHAM CITY   CLOUDY    67  57  70 CALM      30.09F
HILL AFB       PTSUNNY   64  64  97 S9        30.10F
LOGAN          MOSUNNY   64  58  80 SW6       30.09F
OGDEN          CLOUDY    66  59  78 SE3       30.08F
PROVO AIRPORT  PTSUNNY   68  54  60 VRB3      30.12F
SALT LAKE CITY PTSUNNY   69  57  65 S3        30.08F
VERNAL         MOSUNNY   72  47  40 SW16G23   30.03S
WENDOVER       CLOUDY    75  48  38 S7        30.08S
HEBER CITY     PTSUNNY   66  50  55 SE3       30.16S
WEST JORDAN    SUNNY     68  54  60 CALM      30.12F

$$

UTZ012>022-026-027-040200-

SOUTHERN/CENTRAL UTAH

CITY           SKY/WX    TMP DP  RH WIND       PRES   REMARKS
BLANDING       MOSUNNY   80  44  28 NW13G18   30.18S
BRYCE CANYON   MOSUNNY   78  34  20 W18       30.23S
CEDAR CITY     SUNNY     87  32  14 S15G22    30.05F
DELTA          CLOUDY    73  53  49 N3G18     30.02F
HANKSVILLE     MOSUNNY   82  55  39 E5        29.99S
MILFORD        NOT AVBL
MOAB/CYNLANDS  SUNNY     75  61  61 E3        29.98S
PRICE          SUNNY     75  48  38 N9        30.13R
ST GEORGE      MOCLDY   100  43  14 SW12      29.85S HX  96
KANAB            N/A     91  43  18 SW13      30.06

$$

REGIONAL REPORTS     COLORADO/ARIZONA

CITY           SKY/WX    TMP DP  RH WIND       PRES   REMARKS
CRAIG, CO      PTSUNNY   67  56  67 E10       30.13S THUNDER
GRAND JUNCTION PTSUNNY   82  44  26 W14       30.01S
RIFLE          PTSUNNY   73  55  53 E12       30.06S
MONTROSE       CLOUDY    78  51  38 S13       30.12S
CORTEZ         SUNNY     81  44  27 W12       30.13S
PAGE, AZ       MOSUNNY   93  40  15 VRB5      29.93F
GRAND CANYON   MOSUNNY   82  36  19 W10G23    30.17F
KINGMAN        SUNNY     96  31  10 SW12G26   29.93F HX  90
FLAGSTAFF      MOSUNNY   78  42  27 S9        30.23F

$$

REGIONAL REPORTS    NEVADA/IDAHO/WYOMING

CITY           SKY/WX    TMP DP  RH WIND       PRES   REMARKS
LAS VEGAS, NV  MOSUNNY  104  31   8 SW13      29.74S HX  97
ELY            MOSUNNY   78  37  22 N23G29    30.12R
ELKO           PTSUNNY   87  31  13 NW5       29.98F
POCATELLO, ID  CLOUDY    71  57  61 VRB5      30.03F
BURLEY         PTSUNNY   79  48  33 S3        29.97F
EVANSTON, WY   CLOUDY    57  51  80 W14       30.21S
ROCK SPRINGS   CLOUDY    57  55  93 W14       30.12S
KEMMERER       CLOUDY    54  50  87 W23G31    30.17R

$$


USA.gov is the U.S. government's official web portal to all federal, state and local government web resources and services.